Regional Weather Roundup
Issued by NWS

Home | Current Version | Previous Version | Graphics & Text | Print | Product List | Glossary On
Versions: 1 2 3 4 5 6 7 8 9 10 11 12 13 14 15 16 17 18 19 20 21 22 23 24 25 26 27 28 29 30 31 32 33 34 35 36 37 38 39 40 41 42 43 44 45 46 47 48 49 50
000
ASUS44 KMEG 041710
RWRTN
TENNESSEE HOURLY STATE WEATHER ROUNDUP
NATIONAL WEATHER SERVICE MEMPHIS TN
1200 PM CDT MON MAY 04 2015

TNZ002-004-019-021-049-052-054-088>092-041800-
WEST TENNESSEE

CITY           SKY/WX    TMP DP  RH WIND       PRES   REMARKS
MEMPHIS INTL   MOSUNNY   81  60  48 SW10      30.23S
NWS MEMPHIS      N/A     82 N/A N/A MISG        N/A
JACKSON        SUNNY     81  58  45 S7        30.24S
DYERSBURG      MOSUNNY   81  54  39 SW9       30.23S
PARIS          SUNNY     79  57  47 SW12      30.24S
LEXINGTON      SUNNY     79  57  47 VRB5      30.25S
$$

TNZ008-025-027-028-033-062-065-066-041800-
NORTH MIDDLE TENNESSEE

CITY           SKY/WX    TMP DP  RH WIND       PRES   REMARKS
NASHVILLE      MOSUNNY   81  52  36 W10       30.26F
CLARKSVILLE    MOSUNNY   79  58  48 SW9       30.23F
SMYRNA         MOSUNNY   79  55  43 S7        30.28F
COOKEVILLE     SUNNY     81  55  41 VRB7      30.29F
CROSSVILLE     MOSUNNY   76  47  35 SW9G18    30.33S
$$

TNZ061-075-076-078-094-096-097-041800-
SOUTH MIDDLE TENNESSEE

CITY           SKY/WX    TMP DP  RH WIND       PRES   REMARKS
FAYETTEVILLE     N/A     75  54  46 W7        30.30S
TULLAHOMA      SUNNY     75  50  41 SW9       30.31S
WINCHESTER     MOSUNNY   79  52  38 SW6       30.30F
MCMINNVILLE    SUNNY     79  54  41 SW7       30.30F
COLUMBIA       MOSUNNY   81  57  44 VRB6      30.26F
SHELBYVILLE    MOSUNNY   79  57  47 S10       30.30S
$$

TNZ017-018-042-046-047-041800-
NORTHEAST TENNESSEE

CITY           SKY/WX    TMP DP  RH WIND       PRES   REMARKS
TRI CITIES     MOSUNNY   77  49  37 W14       30.32F
ELIZABETHTON   MOSUNNY   75  48  38 W7        30.32F
$$

TNZ012-013-036-069-073-074-041800-
CENTRAL EAST TENNESSEE

CITY           SKY/WX    TMP DP  RH WIND       PRES   REMARKS
KNOXVILLE      MOSUNNY   77  49  37 NW6       30.30F
OAK RIDGE      SUNNY     79  51  37 S6        30.31F
GATLINBURG     SUNNY     79  48  34 NW8G20    30.29F
MORRISTOWN     SUNNY     77  54  44 NW8       30.32F
$$

TNZ083-085-099-041800-
SOUTHEAST TENNESSEE

CITY           SKY/WX    TMP DP  RH WIND       PRES   REMARKS
CHATTANOOGA    MOSUNNY   79  52  38 VRB5      30.30F
$$

SKY/WX REPORTED AS FAIR MEANS FEW OR NO CLOUDS BELOW
12 THOUSAND FEET.




USA.gov is the U.S. government's official web portal to all federal, state and local government web resources and services.